BREEZE-M DEB (TANK), 39362

Orbit data source: Space-Track

BREEZE-M DEB (TANK), 39362 is space debris in HEO originally from a launch on Fri, 25 Oct 2013 UTC launched from the Tyuratam Missile And Space Complex (TTMTR). Debris objects in space refer to the collection of defunct objects orbiting the Earth. Examples of debris include non-operational satellites, rocket bodies, and fragments generated from explosions, collisions, or faulty payload assembly.

Loading next visibility...
Identifier
39362, 2013-058C
Orbit
HEO
Country
Flag of CISCIS
Related business
Manufacturer
Khrunichev
Mission
Spacecraft
Bus & Motor
BRIZ TANK, Unknown motor
Mass
~1,000 kg wet, 1,000 kg dry
Launch date (UTC)
2013-10-25 (12 years ago)
Launch vehicle
Unknown
Launch site
Tyuratam Missile And Space Complex (TTMTR)
Object type
Payload
Rocket body
Debris
Shape & HBR
Torus, 2.0 m
Radar Cross Section
8.218 m², Large (>1 m²)

Expand to show TLE details & history
Last TLE update: 2 days ago

TLE from 2 days ago
0 BREEZE-M DEB (TANK)
1 39362U 13058C   25353.49663828  .00001418  00000-0  40273-3 0  9997
2 39362  49.5405  74.9441 5124709  74.5936 334.6187  5.38382715233836
Epoch: 2025-12-19T11:55Z
TLE epoch observation values (Epoch: 2025-12-19T11:55:09.547Z)
Latitude
-0°
Longitude
167.82932°
Altitude
2,538.829 km
Speed
7.774 km/s
True Right ascension
04h 59m 49s
True Declination
0° 00' 00"
Sunlit
Object was in full shadow at epoch
Visualization orbit readout
Latitude
Unknown
Longitude
Unknown
Altitude
Unknown
Speed
Unknown
Apparent Right ascension
Unknown
Apparent Declination
Unknown
Sunlit
N/A
Visualization observer readout
Local Sidereal Time
13:58:17
Azimuth
Unknown
Elevation
Unknown
Doppler factor
Unknown
Orbital elements
Apogee altitude
14,421.197 km
Perigee altitude
326.31 km
Semi-major axis
13,751.89 km
Eccentricity
0.51247
Inclination
49.5405°
RAAN
74.9441°
Arg. of periapsis
74.5936°
True anomaly
285.40009°
Mean anomaly
334.6187°
Eccentric anomaly
313.22221°
Mean motion
1.34586 °/min
Orbital period
267.49 mins
BSTAR
0.00040273
Loading maneuver chart data...
Computing Atmospheric mass density...
Loading historical data...
Loading historical data...
Loading historical data...
Loading historical data...
Loading historical data...
Loading historical data...
Loading historical data...
Other satellites on launch #58 in the year 2013 (2013-10-25 UTC)

Documentation

Showing up to 5 results
|